Airfield :
LOGIN :

Register | Disclaimer

   EN    FR    IT 

 










Legend :    VFR   Marginal VFR   IFR   Intensive IFR   Very Intensive IFR
Visi :
Ceiling :
>= 8 km
>= 3000ft
5 to 8 km
1000 to 3000 ft
1500m to 5 km
500 to 1000 ft
800 to 1500m
200 to 500 ft
< 800m
< 200 ft
Symbols :   Thunderstorms  Fog  Heavy snow  Heavy precipitations  Wind > 20 kt
SIGMETs :     Misc.  Thunderstorms  Icing  Turbulence  Mountain Waves  Volcanic Ashes






- Airport Elevation : 1890 ft
- IATA code : MEK


GMFM - Bassatine

CURRENT METAR :
  • 260500Z 30004KT 260V340 5000 NSC 17/15 Q1017 NOSIG

EXPIRED METARs :
  • 260400Z 08005KT 040V120 5000 NSC 17/15 Q1016 NOSIG
  • 260300Z 07005KT 5000 NSC 16/15 Q1017 NOSIG
  • 260200Z 20006KT 170V240 6000 -TSRA FEW020CB SCT100 BKN200 16/15 Q1018 NOSIG
  • 260100Z 27012KT 240V300 6000 -TSRA FEW020CB SCT100 BKN200 16/15 Q1018 NOSIG

TAF TAF GMFM
Valid from the 26 at 00:00 until the 27 at 06:00 UTC


252300Z 2600/2706 VRB05KT 9999 -TSRA FEW020CB SCT100 BKN200
BECMG 2603/2605 CAVOK
TEMPO 2613/2620 34012KT 9999 FEW020



MET'MAP, your aeronautical weather chart ! - Copyright ORBIFLY December 2007 - Disclaimer

ORBIFLY MET'MAP TEAM :

Programming & Development : Alexandra Zaïnal
Original concept : Baudouin d'Aumeries
Technical & hardware support : Manuel Goepfert
Assistance : Marc-Olivier Méhu




SOURCES & CREDITS :

   NOAA